FLOCK 1C 7

导读 | 星芒AI

FLOCK 1C 7 是由美国公司 Planet Labs 运营的 Dove 系列小型地球观测卫星之一,于 2016 年发射。该卫星属于 Flock 1C 群组,主要用于获取高分辨率多光谱图像,支持环境监测、农业管理、灾害评估等多种应用。FLOCK 1C 7 采用低成本设计,具备每日成像能力,与其他 Dove 卫星协同工作,实现全球高频次覆盖,为用户提供实时地球数据服务。

基本信息
目录编号:
40026
目录名称:
FLOCK 1C 7
国际标识:
2014-033S
轨道中心:
EARTH
卫星名称:
FLOCK 1C 7
卫星全名:
--
卫星状态:
已陨落 最后检测时间 2025-02-08
发射日期:
2014-06-19 UTC
国别 :
美国 (US)
星等 :
--
轨道信息
数据来源 国际轨道数据
星历时间: 2025-02-04T12:20:33+0800
轨道信息已过期314天
半长轴: 6561.852km
偏心率: 0.0005971
轨道倾角: 98.027°
近地点辐角 252.563°
升交点赤经 54.327°
平近点角 107.501°
近地点: 179.798km
远地点: 187.636km
周期: 88.166分钟
每日圈数: 16.332896
详细信息
使用方式:
暂无